RH
79 75 86 91 93 93 86 90 91 86 84 93 92 87 88 96 99 95 99 96 92 87 88 86 84 82 90 86 84 96 95 82 85 85 90 91 91 90 95 89 84 81 94
72 82 90 90 92 92 88 93 93 88 90 92 96 89 91 90 95 100 100 99 97 97 94 90 86 88 88 86 97 97 77 76 76 78 81 85 86 92 95 84 91 93 96
67 87 90 91 92 91 86 90 91 89 89 91 92 93 96 97 100 97 93 91 89 88 90 91 91 92 97 89 90 84 76 78 82 82 84 88 88 93 95 93 88 96 93
80 89 90 88 91 93 90 88 89 90 89 88 90 93 98 99 96 94 92 90 88 88 87 87 86 85 82 70 78 80 69 75 80 68 79 81 80 94 93 95 99 100 99
91 93 96 88 88 95 93 87 85 77 82 89 89 95 98 96 93 91 91 91 91 92 89 89 88 88 82 75 87 74 73 79 73 66 80 85 79 90 93 95 98 96 97
92 95 97 89 89 98 93 86 71 89 96 92 94 98 96 92 92 92 92 94 93 93 90 91 92 92 87 80 94 78 79 76 64 61 84 90 97 97 98 95 88 97 96
96 98 97 91 88 97 93 83 76 92 94 98 99 96 91 90 91 92 94 94 93 91 90 89 95 92 86 90 94 64 63 61 58 79 92 92 96 95 95 96 94 93 92
99 99 97 89 87 93 90 78 89 93 93 100 97 92 89 90 92 92 93 92 92 88 89 89 96 86 92 92 77 67 68 65 84 89 88 93 90 94 96 92 90 90 87
99 97 96 92 89 90 79 89 91 94 98 99 93 91 91 92 92 92 91 90 88 87 87 94 92 87 97 87 83 86 89 86 84 85 92 90 88 89 84 82 87 85 87
98 97 91 96 94 89 89 96 95 94 98 93 90 89 89 90 91 93 90 89 85 89 89 93 88 92 100 81 80 78 75 75 84 92 91 90 89 87 80 83 83 83 84
95 95 90 88 95 93 100 97 93 98 91 87 88 88 89 93 92 90 88 84 88 86 94 85 92 98 79 76 76 74 70 79 90 93 91 88 82 76 82 82 83 82 83
99 92 91 92 99 100 100 94 98 98 92 87 89 89 86 89 88 82 84 84 86 87 97 98 90 74 70 68 73 74 77 88 90 88 81 77 78 77 81 84 84 84 85
92 97 99 99 98 100 94 96 97 91 91 92 89 84 81 82 78 75 82 89 87 87 98 83 62 57 54 57 78 86 84 83 81 86 80 81 80 80 82 83 84 84 84
99 98 93 100 100 99 90 96 94 91 92 91 87 76 71 67 68 74 88 90 79 72 82 60 56 53 56 78 87 86 86 83 72 72 83 83 82 81 81 82 83 84 84
90 95 93 100 100 95 91 94 93 92 90 82 74 59 44 46 56 71 82 77 63 62 61 58 56 54 62 88 90 87 85 79 66 73 87 85 85 84 82 81 81 82 83
82 91 84 86 100 96 92 92 93 90 82 66 45 32 31 33 49 63 60 58 62 61 58 58 57 53 49 57 77 78 71 56 51 68 80 85 85 85 84 82 81 80 81
73 75 87 78 92 100 92 89 89 85 56 40 28 28 33 40 48 50 50 57 63 63 60 60 59 54 50 43 36 35 35 38 44 50 57 67 74 79 80 80 80 82 81
99 95 87 96 98 94 99 97 87 52 42 29 26 32 36 38 40 43 48 54 63 63 61 60 61 59 54 49 49 48 47 44 44 42 42 43 44 47 54 64 71 75 76
100 99 99 97 90 93 92 91 71 54 51 39 34 37 36 37 38 40 50 56 62 64 63 62 64 61 60 58 57 56 56 56 54 52 52 51 54 49 47 47 45 46 62
100 100 94 98 98 84 89 85 70 62 56 41 40 41 38 38 39 39 46 51 59 64 67 67 67 67 63 59 62 62 61 60 60 60 60 60 60 62 59 55 53 52 50
100 100 100 92 90 96 77 80 76 54 52 45 43 40 38 38 38 39 39 44 53 60 65 66 66 66 66 68 69 72 71 68 63 63 64 63 64 65 65 63 60 58 58
100 99 100 94 81 73 72 72 77 54 50 49 45 42 39 38 37 37 37 38 40 46 50 53 52 51 50 52 46 54 55 58 70 72 68 66 66 65 65 65 63 61 61
100 100 96 93 90 85 83 84 74 67 53 50 51 47 44 41 39 37 37 37 39 39 40 40 39 38 43 49 44 45 61 47 59 58 65 72 71 68 66 66 64 62 62
100 100 100 100 100 100 100 84 70 76 63 45 46 46 46 44 42 41 38 38 38 38 37 37 38 36 35 43 50 43 38 46 51 49 58 67 72 72 72 64 60 61 62
99 99 100 100 100 100 100 99 100 89 71 42 42 44 45 44 42 40 39 39 39 39 40 39 40 41 41 42 43 52 49 48 45 51 48 57 64 66 64 59 60 56 54
100 100 100 100 100 100 100 100 100 82 62 56 45 45 45 45 46 43 42 43 46 46 45 44 43 38 35 37 41 42 46 54 64 58 55 59 58 59 58 57 56 57 57
Wind_Speed
24 37 36 33 29 28 28 27 26 26 24 23 21 20 19 19 19 18 18 18 17 16 14 14 14 13 14 14 13 14 14 16 17 16 16 16 16 14 14 13 13 12 12
25 37 35 34 31 30 30 28 27 28 26 25 23 22 20 19 18 16 16 14 14 13 12 12 13 12 11 13 12 13 15 15 16 16 15 15 15 13 12 11 11 11 11
29 34 34 35 32 32 31 29 29 27 27 25 22 20 19 17 16 16 15 14 13 12 12 12 12 12 11 11 12 13 13 14 16 16 16 13 12 12 14 14 14 13 11
31 35 34 36 33 33 32 30 30 29 27 23 21 20 18 17 16 15 15 14 13 13 12 12 11 11 11 12 12 12 12 16 15 15 13 13 13 15 15 16 18 20 20
26 31 34 38 36 33 34 31 29 28 26 26 22 20 18 16 16 15 15 15 14 13 13 13 13 13 13 13 14 14 15 16 14 12 12 12 13 14 16 17 18 18 19
25 27 33 37 37 32 33 31 30 26 28 24 22 19 18 16 16 16 16 15 14 14 14 14 13 13 14 16 16 17 18 16 13 11 11 12 15 19 19 18 16 17 19
24 26 30 35 36 31 32 31 29 27 26 23 21 20 18 17 17 16 16 15 15 14 15 15 14 16 18 18 16 17 15 13 10 13 18 19 19 19 19 18 17 15 16
24 26 28 34 36 32 32 30 29 28 25 21 20 19 19 17 17 17 16 15 15 16 17 16 19 19 19 19 18 17 16 17 19 22 20 17 19 17 17 15 14 13 14
22 28 29 31 34 33 32 30 32 28 24 22 20 19 19 18 17 17 17 16 15 17 17 18 20 20 19 20 21 20 20 20 21 21 18 16 18 16 14 13 15 15 13
26 26 32 29 31 32 31 34 31 27 25 24 22 21 20 20 18 17 18 17 17 18 17 20 20 21 20 20 20 19 18 19 19 17 15 15 17 15 13 14 15 16 15
27 29 33 31 29 31 33 34 29 27 26 25 24 23 21 20 20 19 19 19 21 18 18 21 21 21 22 19 17 16 15 17 16 15 15 17 17 13 14 14 15 16 16
22 31 31 34 31 31 35 32 30 26 29 29 28 26 24 23 21 22 21 22 20 20 21 20 21 21 20 18 17 15 17 18 17 15 14 12 13 13 14 15 15 16 16
19 16 23 31 38 37 35 32 31 31 29 28 26 26 26 24 24 24 26 24 22 22 19 21 21 18 16 18 20 22 22 20 17 15 13 15 14 15 15 15 15 16 15
19 24 29 33 39 39 38 34 33 32 30 28 26 26 26 26 27 28 27 26 22 22 23 22 20 18 19 21 23 23 19 18 15 15 15 16 14 14 14 15 15 15 15
12 18 21 18 39 42 39 36 33 31 29 28 27 25 25 27 28 27 26 25 22 22 22 21 20 19 20 21 20 18 17 15 14 18 15 17 15 14 13 13 14 14 14
9 13 24 25 25 47 42 37 33 30 28 28 26 25 24 26 29 28 26 24 23 23 22 20 20 20 20 19 18 16 15 15 16 16 17 15 16 14 13 12 12 13 12
15 10 9 12 15 28 40 37 33 30 28 27 26 25 25 25 27 26 25 24 23 23 22 21 20 19 20 19 19 17 17 16 16 15 14 14 14 14 12 11 11 11 11
21 24 21 11 9 13 18 27 32 30 27 25 26 25 23 23 23 24 24 24 23 24 23 22 20 19 19 18 18 16 15 14 13 13 13 12 11 10 10 9 9 10 10
23 25 26 23 10 12 7 18 17 25 23 23 23 22 22 21 21 23 24 24 24 23 23 22 20 19 19 17 15 14 12 11 11 11 11 10 9 8 7 7 6 7 8
25 32 32 33 34 30 30 16 9 7 16 20 21 20 20 21 21 22 24 24 24 24 23 22 21 18 18 18 15 11 9 9 9 9 9 8 8 7 7 6 5 4 4
24 23 26 37 36 42 42 18 5 1 8 16 19 20 21 22 22 22 24 24 24 25 24 22 21 21 18 18 17 9 6 7 9 9 9 9 8 6 5 5 5 3 3
21 22 24 31 46 46 46 28 6 6 7 12 16 19 21 22 22 23 24 25 25 25 25 24 23 21 15 18 7 8 3 3 7 9 10 10 10 8 7 6 5 4 3
16 20 25 26 27 37 44 37 25 13 12 12 15 19 21 21 22 22 23 24 24 25 26 25 23 20 16 17 13 6 3 3 4 7 10 12 11 10 10 8 6 6 5
13 18 21 22 22 27 34 39 42 34 22 25 21 20 20 21 21 21 21 21 22 21 22 21 21 19 16 17 12 9 7 8 3 2 4 10 10 10 9 7 6 7 7
11 15 19 22 24 32 34 32 27 27 23 32 25 23 22 21 20 20 21 22 22 22 21 19 18 16 14 15 10 11 8 6 8 4 2 3 7 9 8 8 7 7 8
11 16 17 21 19 27 28 30 28 29 24 26 29 26 25 23 22 21 21 21 20 20 20 19 16 16 16 15 12 11 9 4 5 5 2 2 2 2 4 5 6 7 7
Wind_Direction
190 174 174 172 171 168 167 160 156 156 154 151 146 143 144 139 137 139 135 129 125 127 122 121 120 120 114 113 116 110 109 104 103 111 108 102 97 89 85 81 82 87 84
188 174 176 171 172 168 167 163 159 161 158 149 146 147 146 147 144 129 129 126 125 127 127 129 132 133 134 134 124 122 118 112 109 107 106 101 99 97 88 82 98 94 91
189 175 176 174 173 168 172 165 165 159 156 152 151 151 146 143 133 132 129 125 125 127 129 132 138 143 143 139 131 127 125 122 114 106 103 99 98 91 83 76 73 82 88
178 174 177 176 175 169 175 170 169 161 158 154 156 152 147 141 138 133 128 128 127 126 128 130 133 136 141 145 137 132 127 131 122 112 97 99 99 94 90 86 83 82 81
177 175 177 178 177 172 177 174 171 166 161 157 156 154 147 146 138 135 131 130 129 127 126 126 125 127 128 132 133 133 129 132 124 110 102 104 108 105 99 93 83 80 80
181 180 180 179 178 174 176 174 167 167 160 160 157 150 149 146 139 137 135 134 131 129 128 126 127 129 125 126 128 132 137 134 126 108 106 114 111 106 96 93 91 76 72
184 182 181 182 180 177 178 172 164 169 163 160 153 151 148 146 142 141 138 135 131 132 129 126 120 125 127 125 126 131 133 136 127 112 113 107 102 93 87 80 81 75 71
185 183 181 184 180 181 180 168 173 169 167 152 153 150 148 146 144 143 139 136 134 135 132 130 124 123 123 123 123 123 124 125 122 116 109 99 96 89 82 73 72 70 68
185 185 181 183 180 184 178 175 174 168 160 154 152 149 149 147 145 143 140 138 137 136 135 133 130 127 125 124 123 121 120 121 113 108 100 98 94 89 82 71 68 67 72
185 185 185 184 183 183 178 176 174 167 162 157 153 157 158 150 146 145 140 140 137 137 136 136 135 132 127 129 126 125 123 119 114 106 101 101 95 86 84 78 73 74 76
190 185 186 186 185 184 175 176 171 165 164 157 159 160 159 150 151 151 143 141 138 138 138 139 136 134 136 133 132 131 129 117 111 106 102 97 94 91 89 83 80 76 79
197 183 189 187 186 176 173 173 167 162 162 166 167 166 161 159 156 150 142 138 141 142 141 136 141 140 141 141 137 136 128 119 110 103 106 101 102 100 95 91 85 81 83
326 190 195 189 187 178 174 173 171 170 169 168 170 166 162 160 155 151 145 148 144 146 139 144 141 141 140 141 136 131 127 126 123 105 108 108 107 106 100 93 86 82 87
12 13 355 190 178 179 176 177 176 174 173 170 170 167 164 160 156 154 153 153 153 150 152 145 141 136 133 135 137 136 136 133 122 113 110 112 108 106 101 96 90 84 84
330 351 324 216 182 180 178 178 178 175 174 170 169 167 166 160 157 156 156 154 154 153 152 147 141 136 135 138 141 142 136 132 127 126 114 120 114 107 101 97 92 87 82
129 322 330 341 185 181 178 176 176 175 172 169 167 163 164 161 157 156 154 154 153 155 154 151 144 137 133 138 141 142 138 135 132 132 130 124 123 110 107 103 100 95 91
137 136 262 322 12 170 175 172 174 172 169 166 163 159 158 159 158 158 157 156 154 156 153 150 145 139 134 132 130 132 132 131 132 132 131 130 128 119 107 102 100 97 94
151 160 163 159 97 15 49 167 169 166 163 162 160 159 162 163 164 162 159 159 155 156 156 154 150 142 138 137 134 134 135 135 136 134 134 133 130 129 119 112 103 96 91
152 135 139 153 152 99 95 90 148 160 161 164 165 163 165 167 166 164 160 159 160 159 159 159 154 152 146 143 141 141 143 143 144 145 144 142 133 133 126 123 111 106 100
142 125 124 125 132 130 111 91 65 148 165 166 169 169 168 167 167 165 163 162 164 163 164 164 159 156 152 149 143 146 154 163 165 166 166 159 147 143 136 129 122 115 113
146 138 125 126 114 113 131 111 325 160 172 170 173 169 171 170 169 171 167 166 167 169 169 168 163 161 154 160 143 142 162 187 197 193 192 191 177 172 165 155 143 145 134
166 160 144 135 131 130 122 129 255 231 187 173 172 171 174 174 172 175 175 172 172 172 173 173 171 157 159 168 158 137 151 202 220 215 212 209 202 197 202 201 193 184 206
171 169 172 169 149 147 140 139 151 226 182 180 174 174 178 178 176 179 181 179 178 181 177 177 177 174 161 182 180 150 139 180 162 212 222 217 214 210 211 219 225 228 229
181 182 177 165 172 158 156 148 164 197 185 179 183 181 180 179 180 182 183 183 183 183 183 183 186 189 181 172 169 183 156 148 153 167 232 229 218 217 221 218 230 243 255
182 195 190 176 170 171 167 171 173 163 191 171 178 182 181 179 183 184 186 184 185 184 185 184 187 192 189 183 181 164 154 159 149 144 162 209 215 219 221 222 228 249 258
173 187 192 181 177 170 172 183 182 177 177 166 169 182 182 183 184 186 188 188 188 188 185 183 185 186 189 196 196 191 176 162 184 123 158 180 230 196 217 221 240 252 253